Astrocast 0.1
1 43798U 18099AS 19233.86083312 -.00000068 00000-0 -86463-6 0 9996
2 43798 097.7404 305.2677 0013907 098.8969 261.3827 14.95745571039013
JO-97
1 43803U 18099AX 19234.48143951 .00000596 00000-0 59257-4 0 9991
2 43803 97.7387 305.6150 0016791 111.3336 248.9679 14.95297807 39103
Suomi 100
1 43804U 18099AY 19233.67797639 .00000568 00000-0 56679-4 0 9994
2 43804 097.7386 304.8191 0016823 114.0166 246.2818 14.95295582038996
Al Farabi 2
1 43805U 18099AZ 19234.40689097 .00000524 00000-0 52615-4 0 9993
2 43805 97.7388 305.5599 0016855 112.0185 248.2828 14.95358667 39104
PWSat 2
1 43814U 18099BJ 19233.92211075 .00008190 00000-0 64645-3 0 9998
2 43814 097.7760 306.8246 0013993 122.3805 237.8802 15.00895488038484
CHOMPTT
1 43855U 18104G 19233.84944554 .00000465 00000-0 18175-4 0 9991
2 43855 085.0365 014.0131 0020381 079.3785 280.9749 15.22450840037782
ISAT
1 43879U 18111D 19234.47178168 .00000026 00000-0 74934-5 0 9994
2 43879 97.7123 141.5286 0013518 161.8343 198.3364 14.96015026 33636
UWE-4
1 43880U 18111E 19233.69742297 .00000662 00000-0 63687-4 0 9997
2 43880 97.7139 140.8837 0012657 163.4149 196.7488 14.96260195 33520
Sparrow
1 43881U 18111F 19233.82390777 .00000651 00000-0 62664-4 0 9997
2 43881 097.7141 141.0370 0012836 162.3582 197.8088 14.96305719035530
Lume 1
1 43908U 18111AJ 19233.67092975 .00000566 00000-0 25794-4 0 9997
2 43908 097.2840 137.1654 0023048 123.1134 237.2320 15.24412797036195
FO-98
1 43933U 19003B 19233.93396604 .00000435 00000-0 22172-4 0 9993
2 43933 097.2770 289.4119 0016733 214.7002 249.8677 15.21690880032824
FO-99
1 43937U 19003F 19234.52106510 .00000665 00000-0 30422-4 0 9990
2 43937 97.2720 290.4435 0023977 199.3471 268.1907 15.23666826 32951
Delphini 1
1 44030U 98067PW 19234.43105550 .00007189 00000-0 10255-3 0 9994
2 44030 51.6389 26.9276 0004686 32.3142 327.8137 15.57471021 31633
MYSat 1
1 44045U 18092F 19233.84674879 .00000929 00000-0 37961-4 0 9998
2 44045 51.6440 60.1675 0010784 318.3668 41.6592 15.35125712 29098
AstroCast 0.2
1 44083U 19018F 19233.80181612 .00000254 00000-0 14398-4 0 9993
2 44083 97.4636 293.2655 0015087 139.4121 220.8242 15.21420528 21665
AISTechSat 3
1 44103U 19018AB 19233.89643509 .00000390 00000-0 19763-4 0 9995
2 44103 097.4517 293.3810 0014279 155.7219 276.3100 15.22690578021698
AISat 1
1 44104U 19018AC 19233.80747541 .00000475 00000-0 18035-4 0 9993
2 44104 97.5045 295.9632 0058511 198.0005 161.9165 15.30531627 21818
Raavana-1
1 44329U 98067QE 19233.70715474 .00004634 00000-0 81491-4 0 9999
2 44329 051.6418 035.6045 0006866 324.2224 035.8306 15.52584630010204
Uguisu
1 44330U 98067QF 19233.70873656 .00004604 00000-0 81131-4 0 9996
2 44330 51.6418 35.6147 0006828 322.7451 37.3065 15.52545159 10181
NepaliSat-1
1 44331U 98067QG 19233.70568166 .00004621 00000-0 81197-4 0 9995
2 44331 51.6418 35.5949 0006879 325.2720 34.7820 15.52619213 10198
Prox-1
1 44339U 19036A 19233.20612631 .00000203 00000-0 -18372-5 0 9993
2 44339 024.0009 206.8390 0011202 098.5965 261.5793 14.52654382008276
OBJECT H
1 44346U 19036H 19233.22618014 .00009679 00000-0 15327-3 0 9994
2 44346 28.5269 191.1225 0389103 347.3252 11.7789 14.96602725 8537
OBJECT J
1 44347U 19036J 19233.25461302 .00032029 00000-0 51588-3 0 9998
2 44347 028.5340 190.4081 0380281 348.2943 010.9006 14.98572819008541
OBJECT K
1 44348U 19036K 19233.27374327 .00008830 00000-0 13725-3 0 9995
2 44348 028.5209 190.5122 0388556 347.9568 011.1951 14.97022872008545
NO-104
1 44354U 19036R 19233.24637534 .00009317 00000-0 14287-3 0 9996
2 44354 028.5317 190.3367 0386546 347.8776 011.2731 14.97763877008531
NO-103
1 44355U 19036S 19233.23981261 .00016303 00000-0 25412-3 0 9990
2 44355 028.5322 190.2879 0384191 347.9825 011.1812 14.98263267008533
Oculus-ASR
1 44356U 19036T 19233.25887501 .00035128 00000-0 51540-3 0 9992
2 44356 28.5283 189.4300 0381015 349.1353 10.1197 15.00427191 8549
CP9
1 44360U 19036X 19233.25695367 .00024115 00000-0 33788-3 0 9992
2 44360 028.5210 189.3404 0387839 349.5512 009.7200 14.99913508008424
Move-IIb
1 44398U 19038N 19233.82996477 .00000751 00000-0 47617-4 0 9991
2 44398 97.4928 194.8513 0027378 83.2001 277.2343 15.11624316 7152
SONATE
1 44400U 19038Q 19233.89484114 .00000324 00000-0 22698-4 0 9990
2 44400 097.4940 194.9173 0027099 081.4578 278.9721 15.11646842007169
JAISAT-1
1 44419U 19038F 19233.87520130 .00000378 00000-0 25464-4 0 9990
2 44419 097.4940 194.9431 0023600 086.8614 273.5317 15.12280221007168
LightSail-2
1 44420U 19036AC 19233.27725939 .00003739 00000-0 84136-3 0 9992
2 44420 024.0064 206.4280 0022153 095.0489 265.2561 14.52730459006432
/EX
1
0
SpaceTrack is not showing the correct NORAD CAT ID for Raavana-1, Uguisu,
and NepaliSat-1.
The NORAD CAT ID for the following Amateur Radio satellites has been
corrected as follows:
Raavana-1 - NORAD CAT ID 44329 (per Nico Janssen, PA0DLO).
Uguisu - NORAD CAT ID 44330 (per Nico Janssen, PA0DLO).
NepaliSat-1 - NORAD CAT ID 44331 (per Nico Janssen, PA0DLO).
Thanks Nico!
1
0
SB KEPS @ AMSAT $ORB19227.N
2Line Orbital Elements 19227.AMSAT
HR AMSAT ORBITAL ELEMENTS FOR AMATEUR SATELLITES IN NASA FORMAT
FROM WA5QGD FORT WORTH,TX August 15, 2019
BID: ORB19227.N
DECODE 2-LINE ELSETS WITH THE FOLLOWING KEY:
1 AAAAAU 00 0 0 BBBBB.BBBBBBBB .CCCCCCCC 00000-0 00000-0 0 DDDZ
2 AAAAA EEE.EEEE FFF.FFFF GGGGGGG HHH.HHHH III.IIII JJ.JJJJJJJJKKKKKZ
KEY: A-CATALOGNUM B-EPOCHTIME C-DECAY D-ELSETNUM E-INCLINATION F-RAAN
G-ECCENTRICITY H-ARGPERIGEE I-MNANOM J-MNMOTION K-ORBITNUM Z-CHECKSUM
TO ALL RADIO AMATEURS BT
AO-07
1 07530U 74089B 19227.16445786 -.00000041 00000-0 25737-4 0 9999
2 07530 101.7496 194.2473 0011726 235.7947 192.7494 12.53639282 47726
UO-11
1 14781U 84021B 19226.91309204 .00000049 00000-0 12162-4 0 9993
2 14781 097.6086 248.9173 0009734 125.9834 234.2285 14.83100141886245
LO-19
1 20442U 90005G 19226.78763261 -.00000010 00000-0 12831-4 0 9997
2 20442 98.6507 168.7002 0011530 347.1190 12.9697 14.32930552544559
HUBBLE
1 20580U 90037B 19227.29194111 .00000312 00000-0 80320-5 0 9997
2 20580 28.4683 191.0513 0002765 30.6348 113.8385 15.09253691409601
MET-2/21
1 22782U 93055A 19227.24024076 -.00000015 00000-0 -27006-4 0 9996
2 22782 82.5489 117.4115 0022868 19.9308 93.6271 13.83821230310828
AO-27
1 22825U 93061C 19227.43225207 -.00000016 00000-0 11899-4 0 9994
2 22825 98.9066 217.3962 0008241 183.3265 176.7863 14.30064255350200
IO-26
1 22826U 93061D 19227.21062068 -.00000007 00000-0 14999-4 0 9999
2 22826 98.9005 217.1537 0008972 173.1011 187.0295 14.30398092350378
FO-29
1 24278U 96046B 19227.22747068 -.00000049 00000-0 -17195-4 0 9997
2 24278 98.5454 12.8480 0351361 90.8472 273.2935 13.53092836135585
NOAA-15
1 25338U 98030A 19227.51701856 .00000023 00000-0 28250-4 0 9991
2 25338 98.7447 248.6733 0011572 77.0072 283.2399 14.25926726105493
GO-32
1 25397U 98043D 19227.39037777 -.00000028 00000-0 71825-5 0 9993
2 25397 98.6905 166.8426 0000768 166.8044 193.3155 14.23668891 96086
ISS
1 25544U 98067A 19228.04239071 -.00429604 00000-0 -79077-2 0 9997
2 25544 51.6471 64.2882 0005665 289.8139 171.8714 15.50085351184542
NO-44
1 26931U 01043C 19227.38961289 -.00000038 00000-0 17130-4 0 9994
2 26931 67.0496 214.7907 0007445 274.5313 85.4937 14.30549421933228
SO-50
1 27607U 02058C 19227.22281230 -.00000062 00000-0 12299-4 0 9994
2 27607 64.5532 233.7015 0079082 245.4621 113.8223 14.75564546895526
